THOR ABLESTAR DEB, 121

Orbit data source: Space-Track

THOR ABLESTAR DEB, 121 is space debris in LEO originally from a launch on Thu, 29 Jun 1961 UTC launched from the Air Force Eastern Test Range (AFETR). Debris objects in space refer to the collection of defunct objects orbiting the Earth. Examples of debris include non-operational satellites, rocket bodies, and fragments generated from explosions, collisions, or faulty payload assembly.

Loading next visibility...
Identifier
121, 1961-015F
Orbit
LEO
Country
Flag of USUS
Related business
Manufacturer
Unknown
Mission
Spacecraft
Bus & Motor
Unknown
Mass
Unknown
Launch date (UTC)
1961-06-29 (64 years ago)
Launch vehicle
Unknown
Launch site
Air Force Eastern Test Range (AFETR)
Object type
Payload
Rocket body
Debris
Shape & HBR
Unknown
Radar Cross Section
Medium (>0.1 m² and <1 m²)

Expand to show TLE details & history
Last TLE update: 16 hours ago

TLE from 16 hours ago
0 THOR ABLESTAR DEB
1 00121U 61015F   25259.09875842  .00000014  00000-0  60948-4 0  9999
2 00121  66.7501   2.8166 0095563 200.7623 158.9569 14.00163320287990
Epoch: 2025-09-16T02:22Z
TLE epoch observation values (Epoch: 2025-09-16T02:22:12.727Z)
Latitude
0.00006°
Longitude
-28.03033°
Altitude
960.256 km
Speed
7.339 km/s
True Right ascension
00h 11m 15s
True Declination
0° 00' 00"
Sunlit
Object was in full shadow at epoch
Visualization orbit readout
Latitude
Unknown
Longitude
Unknown
Altitude
Unknown
Speed
Unknown
Apparent Right ascension
Unknown
Apparent Declination
Unknown
Sunlit
N/A
Visualization observer readout
Local Sidereal Time
11:01:42
Azimuth
Unknown
Elevation
Unknown
Doppler factor
Unknown
Orbital elements
Apogee altitude
961.093 km
Perigee altitude
822.149 km
Semi-major axis
7,269.758 km
Eccentricity
0.00956
Inclination
66.7501°
RAAN
2.8166°
Arg. of periapsis
200.7623°
True anomaly
159.34577°
Mean anomaly
158.9569°
Eccentric anomaly
159.15176°
Mean motion
3.50157 °/min
Orbital period
102.81 mins
BSTAR
0.000060948
Loading maneuver chart data...
Computing Atmospheric mass density...

Documentation

Showing up to 5 results
|